TimeAKDT,TemperatureF,Dew PointF,Humidity,Sea Level PressureIn,VisibilityMPH,Wind Direction,Wind SpeedMPH,Gust SpeedMPH,PrecipitationIn,Events,Conditions,WindDirDegrees,DateUTC
12:56 AM,48.9,43.0,80,29.68,10.0,Calm,Calm,-,N/A,,Partly Cloudy,0,2013-08-29 08:56:00
1:56 AM,48.0,43.0,83,29.67,10.0,Calm,Calm,-,N/A,,Mostly Cloudy,0,2013-08-29 09:56:00
2:56 AM,48.0,43.0,83,29.67,10.0,Calm,Calm,-,N/A,,Mostly Cloudy,0,2013-08-29 10:56:00
3:56 AM,48.0,44.1,86,29.68,10.0,NNW,3.5,-,0.00,Rain,Light Rain,340,2013-08-29 11:56:00
4:56 AM,50.0,45.0,83,29.68,10.0,Calm,Calm,-,0.00,,Overcast,0,2013-08-29 12:56:00
5:56 AM,48.9,46.0,90,29.68,10.0,Calm,Calm,-,0.00,,Overcast,0,2013-08-29 13:56:00
6:30 AM,48.2,44.6,87,29.67,10.0,Calm,Calm,-,N/A,,Mostly Cloudy,0,2013-08-29 14:30:00
6:55 AM,48.2,44.6,87,29.69,10.0,Calm,Calm,-,N/A,,Overcast,0,2013-08-29 14:55:00
7:55 AM,50.0,44.6,82,29.70,10.0,Calm,Calm,-,N/A,,Overcast,0,2013-08-29 15:55:00
8:55 AM,51.8,44.6,76,29.70,10.0,NW,3.5,-,N/A,,Mostly Cloudy,320,2013-08-29 16:55:00
9:55 AM,51.8,46.4,82,29.71,10.0,Calm,Calm,-,N/A,,Overcast,0,2013-08-29 17:55:00
10:17 AM,51.8,44.6,76,29.70,13.0,Calm,Calm,-,N/A,Rain,Light Rain Showers,0,2013-08-29 18:17:00
10:55 AM,51.8,46.4,82,29.73,11.0,Calm,Calm,-,N/A,Rain,Light Rain Showers,0,2013-08-29 18:55:00
11:55 AM,53.6,46.4,77,29.74,10.0,Calm,Calm,-,N/A,,Mostly Cloudy,0,2013-08-29 19:55:00
12:55 PM,55.4,48.2,77,29.75,10.0,Calm,Calm,-,N/A,Rain,Light Rain Showers,0,2013-08-29 20:55:00
1:55 PM,55.4,48.2,77,29.76,10.0,Calm,Calm,-,N/A,,Light Drizzle,0,2013-08-29 21:55:00
2:55 PM,55.4,48.2,77,29.77,13.0,NNW,3.5,-,N/A,,Overcast,330,2013-08-29 22:55:00
3:37 PM,55.4,48.2,77,29.77,13.0,NW,5.8,-,N/A,Rain,Light Rain Showers,320,2013-08-29 23:37:00
3:55 PM,55.4,48.2,77,29.78,13.0,NW,4.6,-,N/A,Rain,Light Rain Showers,310,2013-08-29 23:55:00
4:55 PM,55.4,48.2,77,29.79,13.0,NW,5.8,-,N/A,Rain,Light Rain,320,2013-08-30 00:55:00
5:55 PM,53.6,48.2,82,29.81,13.0,NW,3.5,-,N/A,Rain,Light Rain,310,2013-08-30 01:55:00
6:55 PM,51.8,48.2,88,29.81,13.0,WSW,4.6,-,N/A,Rain,Light Rain,250,2013-08-30 02:55:00
7:55 PM,51.8,48.2,88,29.82,13.0,West,5.8,-,N/A,Rain,Light Rain,260,2013-08-30 03:55:00
8:55 PM,51.8,48.2,88,29.83,25.0,West,5.8,-,N/A,Rain,Light Rain,280,2013-08-30 04:55:00
9:55 PM,51.8,48.2,88,29.84,13.0,West,5.8,-,N/A,Rain,Light Rain,280,2013-08-30 05:55:00
10:56 PM,51.1,48.0,89,29.86,10.0,West,4.6,-,0.02,Rain,Light Rain,270,2013-08-30 06:56:00
11:07 PM,51.8,48.2,88,29.85,10.0,West,3.5,-,0.00,Rain,Light Rain,260,2013-08-30 07:07:00
11:18 PM,51.8,48.2,88,29.85,10.0,WSW,4.6,-,0.00,,Overcast,250,2013-08-30 07:18:00
11:53 PM,51.8,48.2,88,29.86,10.0,WSW,3.5,-,0.00,,Overcast,240,2013-08-30 07:53:00
11:56 PM,51.1,48.0,89,29.87,10.0,WSW,3.5,-,0.00,,Overcast,240,2013-08-30 07:56:00